Bakersfield, CA

5:51 AM PDT on April 23, 2017 (GMT -0700)
Meadows

Weather History for KBFL - July, 2013

Change the Weather History Date:

Monday, July 1, 2013

  Actual Average Record
Temperature  
Mean Temperature 93 °F 82 °F  
Max Temperature 104 °F 95 °F 115 °F (1950)
Min Temperature 81 °F 68 °F 50 °F (1913)
Degree Days  
Heating Degree Days 0    
Month to date heating degree days 0  
Since 1 June heating degree days 0  
Since 1 July heating degree days 0  
Cooling Degree Days 28    
Month to date cooling degree days 28  
Year to date cooling degree days 877  
Since 1 June cooling degree days 498  
Growing Degree Days 42 (Base 50)    
Moisture  
Dew Point 55 °F    
Average Humidity 32    
Maximum Humidity 49    
Minimum Humidity 15    
Precipitation  
Precipitation 0.00 in 0.00 in 0.00 in (2017)
Month to date precipitation 0.00 0.00  
Year to date precipitation 2.36 4.39  
Since 1 July precipitation 0.00  
Snow  
Snow 0.00 in - - ()
Month to date snowfall 0.0  
Since 1 June snowfall 0.0  
Since 1 July snowfall 0.0  
Snow Depth 0.00 in    
Sea Level Pressure  
Sea Level Pressure 29.76 in    
Wind  
Wind Speed 5 mph (NNW)    
Max Wind Speed 18 mph    
Max Gust Speed 20 mph    
Visibility 10 miles    
Events      
T = Trace of Precipitation, MM = Missing Value Source: NWS Daily Summary

Daily Weather History Graph

Daily Weather History Graph

Search for Another Location

Airport or City:

Trip Planner

Search our weather history database for the weather conditions in past years. The results will help you decide how hot, cold, wet, or windy it might be!

Date:

Astronomy

Jul. 01, 2013 Rise Set
Actual Time 5:44 AM PDT 8:15 PM PDT
Civil Twilight 5:15 AM PDT 8:45 PM PDT
Nautical Twilight 4:38 AM PDT 9:21 PM PDT
Astronomical Twilight 3:57 AM PDT 10:02 PM PDT
Moon 1:09 AM PDT (7/1) 2:42 PM PDT (7/1)
Length of Visible Light 15h 30m
Length of Day
14h 30m
Waning Crescent, 34% of the Moon is Illuminated
Jul 1
Waning Crescent
Jul 8
New
Jul 15
First Quarter
Jul 22
Full
Jul 29
Last Quarter

Hourly Weather History & Observations

Time (PDT) Temp. Heat Index Dew Point Humidity Pressure Visibility Wind Dir Wind Speed Gust Speed Precip Events Conditions
12:54 AM 87.1 °F 85.3 °F 55.0 °F 33% 29.73 in 10.0 mi Calm Calm - N/A   Clear
1:54 AM 88.0 °F 86.1 °F 55.0 °F 32% 29.73 in 10.0 mi NNW 3.5 mph - N/A   Clear
2:54 AM 86.0 °F 84.5 °F 55.0 °F 35% 29.72 in 10.0 mi North 4.6 mph - N/A   Clear
3:54 AM 82.0 °F 81.3 °F 54.0 °F 38% 29.73 in 10.0 mi Calm Calm - N/A   Clear
4:54 AM 82.0 °F 82.4 °F 60.1 °F 47% 29.75 in 10.0 mi SSE 4.6 mph - N/A   Clear
5:54 AM 81.0 °F 81.3 °F 59.0 °F 47% 29.77 in 10.0 mi SE 6.9 mph - N/A   Clear
6:54 AM 82.0 °F 82.1 °F 59.0 °F 45% 29.77 in 10.0 mi SE 6.9 mph - N/A   Clear
7:54 AM 84.9 °F 84.4 °F 59.0 °F 41% 29.79 in 10.0 mi SSE 4.6 mph - N/A   Clear
8:54 AM 89.1 °F 88.0 °F 57.9 °F 35% 29.80 in 10.0 mi SE 4.6 mph - N/A   Clear
9:54 AM 91.9 °F 90.6 °F 57.0 °F 31% 29.81 in 10.0 mi Variable 5.8 mph - N/A   Clear
10:54 AM 93.9 °F 92.6 °F 57.0 °F 29% 29.80 in 10.0 mi Calm Calm - N/A   Clear
11:54 AM 93.0 °F 92.7 °F 60.1 °F 33% 29.79 in 10.0 mi NNW 6.9 mph - N/A   Partly Cloudy
12:54 PM 99.0 °F 97.7 °F 55.9 °F 24% 29.77 in 10.0 mi Variable 4.6 mph - N/A   Clear
1:54 PM 97.0 °F - 52.0 °F 22% 29.76 in 10.0 mi NW 10.4 mph - N/A   Clear
2:54 PM 100.0 °F 99.7 °F 57.9 °F 25% 29.74 in 10.0 mi WNW 12.7 mph - N/A   Clear
3:54 PM 104.0 °F - 52.0 °F 18% 29.74 in 10.0 mi NW 10.4 mph - N/A   Clear
4:54 PM 102.0 °F - 46.9 °F 16% 29.73 in 10.0 mi WNW 5.8 mph - N/A   Clear
5:54 PM 100.9 °F - 51.1 °F 19% 29.72 in 10.0 mi West 5.8 mph - N/A   Clear
6:54 PM 100.9 °F - 51.1 °F 19% 29.73 in 10.0 mi NW 6.9 mph - N/A   Clear
7:54 PM 97.0 °F 94.6 °F 54.0 °F 23% 29.75 in 10.0 mi NW 5.8 mph - N/A   Clear
8:54 PM 91.9 °F 89.5 °F 54.0 °F 27% 29.77 in 10.0 mi North 3.5 mph - N/A   Clear
9:54 PM 91.9 °F 89.5 °F 54.0 °F 27% 29.78 in 10.0 mi NE 3.5 mph - N/A   Clear
10:54 PM 89.1 °F 87.7 °F 57.0 °F 34% 29.80 in 10.0 mi NW 6.9 mph - N/A   Clear
11:54 PM 88.0 °F - 52.0 °F 29% 29.80 in 10.0 mi North 8.1 mph - N/A   Clear